[[{"header":{"parameterUnit":"m.s-1","parameterCategory":1,"la1":30.2991,"la2":30.254,"lo1":-89.0895,"lo2":-89.0444,"dy":0.0017,"dx":0.0017,"nx":28,"ny":28,"refTime":"2023-09-15T03:00:00:Z","depth":0,"parameterNumber":2,"parameterNumberName":"U-component_of_WINDS"},"data":[0,0,0,0,0,0,0,0,0,0,0,0,0,0,0,0,0,0,0,0,0,0,0,0,0,0,0,0,0,0,0,0,0,0,0,0,0,0,0,0,0,0,0,0,0,0,0,0,0,0,0,0,0,0,0,0,0,0,1.2762,1.2764,0,1.2903,1.2905,1.2906,1.2941,1.294,1.2939,1.2938,1.3083,1.3088,1.3093,0,0,0,0,0,0,0,0,0,0,0,0,0,1.2522,1.2526,1.2762,1.2764,1.2765,1.2903,1.2905,1.2907,1.2941,1.294,1.2939,1.2938,1.3082,1.3087,1.3093,0,0,0,0,0,0,0,0,0,0,0,0,0,1.2641,1.2528,1.2762,1.2799,1.2804,1.2903,1.2905,1.2907,1.2941,1.294,1.2938,1.2937,1.308,1.3087,1.3094,1.3166,0,0,1.3116,1.3119,0,0,0,0,0,0,0,0,1.2634,1.265,1.2792,1.2797,1.2802,1.2903,1.2874,1.2994,1.2941,1.2889,1.2938,1.2936,1.3024,1.3036,1.3066,1.3172,1.3179,1.3116,1.312,1.3124,1.3126,0,0,0,0,0,0,0,1.2626,1.2644,1.2818,1.2794,1.28,1.2809,1.2824,1.2897,1.2963,1.2893,1.2896,1.2912,1.3027,1.3059,1.3069,1.3181,1.3116,1.3122,1.3127,1.3129,1.3353,1.3354,0,0,0,0,0,0,1.2611,1.2637,1.2813,1.2822,1.2713,1.2814,1.2831,1.2872,1.2962,1.2975,1.2914,1.2914,1.3047,1.3061,1.3075,1.3163,1.3123,1.313,1.3134,1.3351,1.3353,1.3355,0,0,0,0,0,0,1.2606,1.2627,1.2808,1.273,1.2754,1.282,1.2865,1.2875,1.2907,1.2977,1.2989,1.2934,1.3047,1.3065,1.3142,1.3169,1.3133,1.314,1.3349,1.3352,1.3354,1.3342,0,0,0,0,0,0,1.2599,1.2624,1.2652,1.2731,1.2758,1.2873,1.2867,1.2879,1.2919,1.2921,1.2999,1.3011,1.3047,1.3132,1.3149,1.3178,1.3145,1.3347,1.335,1.3353,1.334,1.3344,1.3347,0,0,0,0,0,1.259,1.2644,1.2654,1.2675,1.2794,1.2874,1.289,1.293,1.2921,1.295,1.2995,1.3009,1.3163,1.3139,1.316,1.3191,1.3345,1.3349,1.3353,1.3339,1.3343,1.3347,0,0,0,0,0,0,1.2567,1.2655,1.2666,1.2747,1.2803,1.288,1.2917,1.2933,1.2993,1.2992,1.3039,1.3057,1.3131,1.3169,1.3141,1.3264,1.3254,1.3262,1.3237,1.3241,1.3244,1.3233,1.3151,0,0,0,0,0,1.2571,1.2629,1.2703,1.2767,1.2794,1.2851,1.2887,1.2913,1.2973,1.2997,1.3048,1.3105,1.3167,1.3207,1.3267,1.3347,1.3363,1.3378,1.3381,1.3383,1.3389,1.3433,1.3439,1.3367,1.3367,1.3367,0,0,1.258,1.2636,1.2669,1.2763,1.281,1.2868,1.287,1.2932,1.2976,1.3007,1.3082,1.3122,1.319,1.3268,1.3305,1.3302,1.3413,1.3388,1.3389,1.3394,1.3437,1.3444,1.345,1.337,1.3369,1.3369,0,0,1.2627,1.2675,1.2733,1.2779,1.2849,1.2887,1.29,1.2975,1.3002,1.308,1.3103,1.3156,1.3262,1.3308,1.3346,1.341,1.3425,1.3429,1.3445,1.3487,1.3492,1.3497,1.3519,1.3526,1.3435,1.3435,1.3435,0,1.2629,1.2718,1.276,1.2821,1.2861,1.2892,1.295,1.2993,1.308,1.3107,1.3102,1.3234,1.3282,1.3371,1.3387,1.3417,1.3433,1.3419,1.3488,1.3494,1.3499,1.352,1.3528,1.3435,1.3435,1.3435,1.3435,0,1.2717,1.2779,1.2817,1.2899,1.2944,1.3003,1.3054,1.3095,1.3117,1.3155,1.3232,1.3291,1.3363,1.3387,1.341,1.3479,1.3475,1.3479,1.3469,1.3505,1.3525,1.3534,1.3434,1.3434,1.3434,1.3434,0,0,1.2751,1.2856,1.2869,1.2906,1.2986,1.3034,1.3095,1.3166,1.3199,1.3258,1.3309,1.3398,1.3401,1.3444,1.3472,1.3509,1.3554,1.3509,1.3511,1.3513,1.3633,1.3628,1.3637,1.3565,1.3567,1.3568,1.3627,0,1.2806,1.2915,1.2955,1.3044,1.3101,1.3131,1.3183,1.3238,1.3275,1.3328,1.337,1.3431,1.3432,1.3458,1.3496,1.3541,1.3578,1.3537,1.3612,1.3615,1.3593,1.3648,1.3643,1.3695,1.3635,1.3636,1.3637,0,1.2884,1.2943,1.3038,1.311,1.3135,1.3182,1.3249,1.33,1.3363,1.3387,1.3434,1.346,1.3525,1.3512,1.3601,1.3572,1.3606,1.3632,1.3635,1.3642,1.3627,1.3654,1.3713,1.372,1.3651,1.365,1.3649,0,1.2897,1.3001,1.3071,1.3102,1.3188,1.322,1.3257,1.3318,1.3358,1.3417,1.3443,1.351,1.3545,1.3596,1.3639,1.3626,1.3723,1.3715,1.3745,1.3743,1.3762,1.376,1.3825,1.3787,1.3787,1.3786,1.3786,0,1.2953,1.3009,1.3078,1.312,1.3184,1.323,1.3292,1.3331,1.3385,1.3436,1.3467,1.3513,1.3568,1.3622,1.3656,1.3724,1.374,1.3761,1.3769,1.3758,1.3755,1.3779,1.3776,1.3789,1.3788,1.3788,1.3787,0,1.2978,1.3026,1.3104,1.3179,1.3199,1.3243,1.3307,1.335,1.3388,1.3452,1.347,1.353,1.3595,1.3644,1.3728,1.3751,1.3823,1.3832,1.3801,1.3805,1.3831,1.3827,1.3912,1.3925,1.388,1.388,1.388,0,1.3009,1.3053,1.3133,1.3169,1.3206,1.3264,1.3305,1.3351,1.3392,1.3466,1.35,1.3567,1.3623,1.3725,1.3777,1.3842,1.3852,1.3877,1.3861,1.3848,1.385,1.3846,1.385,1.3878,1.3879,1.3879,1.3879,0,1.3059,1.3081,1.3138,1.3203,1.3251,1.3305,1.3359,1.3387,1.3443,1.3488,1.3554,1.3598,1.3684,1.3749,1.3819,1.3858,1.3878,1.3884,1.3894,1.3881,1.3861,1.3871,1.3805,1.3881,1.3881,1.3881,1.3881,1.3881,1.3087,1.3127,1.319,1.3252,1.3298,1.3348,1.3391,1.3435,1.3491,1.3565,1.3589,1.3658,1.3719,1.3814,1.3854,1.3908,1.3908,1.3922,1.3926,1.3928,1.3927,1.3854,1.3921,1.3921,1.3921,1.3921,1.3921,0,1.3137,1.3179,1.3236,1.3311,1.336,1.3375,1.3436,1.3475,1.3535,1.3591,1.3645,1.3721,1.3785,1.3842,1.3909,1.3941,1.3952,1.3957,1.3954,1.3962,1.3924,1.3908,1.3947,1.3947,1.3947,1.3947,1.3947,1.3947,1.3169,1.3237,1.3266,1.3357,1.3399,1.3466,1.3499,1.3545,1.3589,1.3673,1.3726,1.3763,1.3819,1.3889,1.3949,1.3964,1.3986,1.3989,1.4006,1.3968,1.3965,1.3962,1.3947,1.3993,1.3994,1.4039,1.404,1.404]},{"header":{"parameterUnit":"m.s-1","parameterCategory":1,"la1":30.2991,"la2":30.254,"lo1":-89.0895,"lo2":-89.0444,"dy":0.0017,"dx":0.0017,"nx":28,"ny":28,"refTime":"2023-09-15T03:00:00:Z","depth":0,"parameterNumber":3,"parameterNumberName":"V-component_of_WINDS"},"data":[0,0,0,0,0,0,0,0,0,0,0,0,0,0,0,0,0,0,0,0,0,0,0,0,0,0,0,0,0,0,0,0,0,0,0,0,0,0,0,0,0,0,0,0,0,0,0,0,0,0,0,0,0,0,0,0,0,0,2.3212,2.3211,0,2.3149,2.3148,2.3147,2.3108,2.3107,2.3107,2.3107,2.3039,2.3037,2.3036,0,0,0,0,0,0,0,0,0,0,0,0,0,2.3292,2.3291,2.3212,2.3211,2.321,2.3149,2.3148,2.3147,2.3108,2.3107,2.3107,2.3107,2.3039,2.3038,2.3036,0,0,0,0,0,0,0,0,0,0,0,0,0,2.3246,2.3291,2.3212,2.3183,2.318,2.3149,2.3148,2.3147,2.3108,2.3107,2.3107,2.3107,2.304,2.3038,2.3035,2.3027,0,0,2.3028,2.3027,0,0,0,0,0,0,0,0,2.3249,2.3243,2.3188,2.3185,2.3181,2.3136,2.3152,2.3107,2.3108,2.3135,2.3107,2.3107,2.3071,2.3066,2.3055,2.3024,2.3021,2.3028,2.3026,2.3025,2.3025,0,0,0,0,0,0,0,2.3252,2.3246,2.3187,2.3187,2.3183,2.3172,2.3165,2.3143,2.3106,2.3133,2.313,2.3123,2.3069,2.3057,2.3053,2.302,2.3028,2.3026,2.3024,2.3023,2.2977,2.2977,0,0,0,0,0,0,2.3261,2.3249,2.3189,2.3185,2.3215,2.3171,2.3163,2.3151,2.3106,2.3099,2.3123,2.3121,2.3062,2.3056,2.3051,2.3036,2.3025,2.3023,2.3022,2.2976,2.2977,2.2977,0,0,0,0,0,0,2.3262,2.3256,2.3191,2.3216,2.3207,2.317,2.3156,2.315,2.3138,2.3099,2.3091,2.3118,2.3061,2.3054,2.3033,2.3034,2.3022,2.302,2.2976,2.2976,2.2977,2.3009,0,0,0,0,0,0,2.3265,2.3257,2.3254,2.3216,2.3206,2.3176,2.3156,2.3149,2.3134,2.3131,2.3092,2.3085,2.306,2.3037,2.3031,2.303,2.3018,2.2976,2.2976,2.2977,2.3008,2.3011,2.3013,0,0,0,0,0,2.3268,2.3266,2.3254,2.3247,2.3202,2.3176,2.317,2.3143,2.3135,2.3131,2.3105,2.3087,2.3035,2.3035,2.3028,2.3026,2.2976,2.2976,2.2977,2.3007,2.301,2.3013,0,0,0,0,0,0,2.3304,2.326,2.3247,2.3233,2.3209,2.317,2.3165,2.3147,2.3124,2.3122,2.3088,2.3079,2.3061,2.3042,2.3043,2.3015,2.3003,2.3002,2.3028,2.3031,2.3034,2.3038,2.3016,0,0,0,0,0,2.331,2.3294,2.3256,2.3247,2.3236,2.3202,2.319,2.3171,2.3144,2.3133,2.3106,2.308,2.3057,2.3043,2.3021,2.3005,2.2995,2.3,2.3003,2.3005,2.3004,2.2993,2.2994,2.2978,2.2978,2.2978,0,0,2.3323,2.3297,2.3289,2.3253,2.3233,2.3215,2.3194,2.3177,2.3163,2.313,2.3109,2.3088,2.3056,2.3037,2.3028,2.3021,2.3007,2.3006,2.3008,2.3006,2.2993,2.2995,2.2996,2.2979,2.2979,2.2978,0,0,2.3336,2.3316,2.3305,2.3285,2.3254,2.3232,2.3229,2.3193,2.3178,2.3156,2.3131,2.3113,2.3075,2.3053,2.3037,2.3041,2.3022,2.3034,2.3047,2.3036,2.3037,2.3038,2.3038,2.3039,2.3034,2.3034,2.3034,0,2.3355,2.333,2.3302,2.3286,2.327,2.3241,2.3229,2.321,2.3172,2.3161,2.3154,2.3106,2.3082,2.3057,2.3058,2.3046,2.304,2.3038,2.304,2.304,2.3041,2.304,2.304,2.3036,2.3035,2.3035,2.3035,0,2.3354,2.3336,2.3331,2.3297,2.3281,2.3267,2.3235,2.3222,2.3203,2.3181,2.3158,2.3129,2.3099,2.3092,2.3074,2.3063,2.306,2.3047,2.3034,2.3044,2.3043,2.3043,2.3038,2.3037,2.3037,2.3036,0,0,2.3388,2.3338,2.3337,2.332,2.3283,2.3268,2.3252,2.3224,2.3212,2.3187,2.3171,2.314,2.3127,2.3109,2.3088,2.3078,2.3081,2.3066,2.3065,2.3069,2.3066,2.3075,2.3076,2.3069,2.3069,2.3069,2.3068,0,2.3395,2.3367,2.334,2.332,2.3302,2.3274,2.3259,2.3234,2.3213,2.3193,2.3169,2.3146,2.3132,2.3121,2.311,2.3083,2.308,2.3083,2.3052,2.3051,2.306,2.3075,2.3085,2.3087,2.3068,2.3068,2.3068,0,2.34,2.3377,2.3356,2.3319,2.3311,2.3299,2.327,2.3252,2.3222,2.3207,2.3186,2.3164,2.3143,2.3133,2.3103,2.3106,2.3091,2.3076,2.3075,2.307,2.306,2.307,2.3086,2.3086,2.3067,2.3067,2.3067,0,2.3426,2.3389,2.3371,2.3358,2.3316,2.3307,2.3289,2.3259,2.3243,2.3217,2.3206,2.3178,2.3163,2.314,2.311,2.3106,2.3083,2.307,2.3068,2.3069,2.3064,2.3064,2.3077,2.3056,2.3056,2.3056,2.3056,0,2.3436,2.3423,2.3382,2.3371,2.3355,2.3324,2.3309,2.3288,2.3261,2.3244,2.3217,2.3201,2.3163,2.3142,2.3118,2.3096,2.3089,2.3075,2.3069,2.3077,2.3079,2.3066,2.3065,2.3056,2.3056,2.3056,2.3056,0,2.3461,2.3433,2.3411,2.3373,2.3363,2.3353,2.332,2.3307,2.3284,2.3262,2.3255,2.3218,2.3192,2.316,2.3123,2.3107,2.3087,2.3078,2.3097,2.3093,2.3092,2.3092,2.3097,2.3095,2.3077,2.3077,2.3077,0,2.3469,2.3459,2.342,2.3407,2.339,2.3369,2.3353,2.3322,2.3306,2.3271,2.3261,2.3233,2.3209,2.3168,2.3136,2.3107,2.3097,2.31,2.3092,2.31,2.3095,2.3096,2.3094,2.3102,2.3103,2.3103,2.3103,0,2.3485,2.3472,2.345,2.3424,2.3406,2.3383,2.3359,2.335,2.3313,2.3296,2.327,2.3251,2.3213,2.3185,2.3152,2.3131,2.311,2.3106,2.3104,2.3112,2.3123,2.3116,2.3102,2.3106,2.3106,2.3106,2.3106,2.3105,2.3501,2.349,2.3461,2.3437,2.3416,2.3394,2.338,2.3355,2.3333,2.3301,2.3284,2.3257,2.3225,2.3179,2.3159,2.3136,2.3129,2.3126,2.3125,2.3124,2.3126,2.3128,2.313,2.313,2.313,2.3129,2.3129,0,2.3514,2.3494,2.3473,2.3441,2.3422,2.3406,2.3379,2.3363,2.3341,2.3314,2.3291,2.3259,2.3231,2.3198,2.3167,2.3155,2.3145,2.3148,2.3148,2.3143,2.3135,2.314,2.3157,2.3157,2.3157,2.3157,2.3157,2.3157,2.3519,2.3499,2.3483,2.3451,2.3431,2.3406,2.3391,2.337,2.3348,2.3315,2.3292,2.3271,2.3241,2.3207,2.318,2.3171,2.316,2.3166,2.3154,2.3147,2.3144,2.3142,2.3146,2.3164,2.3164,2.3164,2.3164,2.3164]}]]